Location: Niverville
(49.6028°N, 97.0419°W)
Time: 16:22:21
(UTC-05:00)

Amateur Radio Satellites - All Passes

Search period start: 31 July 2015 15:52
Search period end: 01 August 2015 15:52
Location: Niverville, 49.6028°N, 97.0419°W

Satellite Date Start Highest point End Downlink Frequencies (MHz)
Time Altitude Azimuth
Gurwin Techsat 1B 31 Jul 15:55:20 16:00:01 30° 267° (W) 16:04:40 435.225
Cosmos 2504 31 Jul 15:56:06 16:03:53 44° 272° (W) 16:11:48 435.465 / 435.565
SO-50 31 Jul 16:02:03 16:05:16 17° 15° (NNE) 16:08:31 436.795
SWISSCUBE 31 Jul 16:04:09 16:08:48 50° 291° (WNW) 16:13:23 437.505
Cosmos 2491 31 Jul 16:04:45 16:10:53 20° 310° (NW) 16:16:42 435.465 / 435.565
JAS-2 31 Jul 16:09:17 16:15:27 67° 259° (W) 16:22:29 435.910
GONETS M04 31 Jul 16:10:02 16:16:31 23° 54° (NE) 16:23:15
DANDE 31 Jul 16:21:52 16:25:16 87° 253° (WSW) 16:29:46 436.750
STARS 31 Jul 16:22:29 16:26:25 32° 95° (E) 16:30:25 437.465
ITAMSAT 1 31 Jul 16:22:50 16:26:41 20° 271° (W) 16:30:23 435.822/435.867
ITUPSAT 1 31 Jul 16:24:56 16:29:22 37° 294° (WNW) 16:33:44 437.325
KKS-1 31 Jul 16:47:15 16:51:45 86° 104° (ESE) 16:56:13 437.445
CUSAT 1 31 Jul 16:47:17 16:50:48 32° 262° (W) 16:55:14 437.405
Cubesat XI-IV 31 Jul 16:50:32 16:52:46 13° 51° (NE) 16:55:13 437.490
HORYU 2 31 Jul 16:55:59 17:00:15 45° 261° (W) 17:04:35 437.375
AO-7 31 Jul 17:06:03 17:14:11 53° 259° (W) 17:22:20 29.400- 29.500
PCSat 31 Jul 17:07:44 17:12:06 24° 32° (NNE) 17:16:32 145.827
BEESAT 31 Jul 17:23:00 17:25:31 14° 305° (NW) 17:27:52 436.000
MOZHAYETS 4 31 Jul 17:32:55 17:37:14 37° 96° (E) 17:41:32
SO-50 31 Jul 17:42:23 17:47:06 40° 38° (NE) 17:51:46 436.795
CUTE-I 31 Jul 17:43:45 17:48:19 30° 62° (ENE) 17:52:59 437.470
STARS 31 Jul 17:58:54 18:02:52 33° 294° (WNW) 18:06:49 437.465
JAS-2 31 Jul 17:59:21 18:02:19 13° 284° (WNW) 18:05:01 435.910
GONETS M04 31 Jul 18:06:14 18:15:00 83° 79° (E) 18:23:46
Cosmos 2499 31 Jul 18:18:11 18:25:43 33° 62° (ENE) 18:33:37 435.465 / 435.565
KKS-1 31 Jul 18:25:18 18:27:48 15° 303° (WNW) 18:30:11 437.445
Cubesat XI-IV 31 Jul 18:26:40 18:31:58 63° 71° (ENE) 18:37:18 437.490
PCSat 31 Jul 18:50:50 18:56:18 88° 53° (NE) 19:01:45 145.827
AO-7 31 Jul 19:07:21 19:09:23 11° 283° (WNW) 19:10:42 29.400- 29.500
MOZHAYETS 4 31 Jul 19:10:18 19:14:24 30° 295° (WNW) 19:18:23
SO-50 31 Jul 19:23:01 19:27:44 43° 239° (WSW) 19:32:20 436.795
CUTE-I 31 Jul 19:23:02 19:28:13 49° 261° (W) 19:33:26 437.470
CUBESAT XI-V 31 Jul 19:25:09 19:29:37 46° 98° (E) 19:34:03 437.345
HO-68 31 Jul 19:27:08 19:32:55 29° 54° (NE) 19:38:52 435.675
BRITE-PL 31 Jul 19:37:43 19:41:39 35° 69° (ENE) 19:45:29 437.365/2234.400
STRAND 1 31 Jul 19:40:49 19:44:48 23° 91° (E) 19:48:51 437.568
DOVE 4 31 Jul 19:44:11 19:46:49 17° 61° (ENE) 19:49:34 437.250
GOMX 1 31 Jul 19:51:46 19:55:24 29° 67° (ENE) 19:59:03 467.674
CINEMA 3 31 Jul 19:58:58 20:00:30 12° 57° (ENE) 20:02:13 145.822/145.860
GONETS M04 31 Jul 20:04:08 20:10:58 26° 281° (W) 20:17:32
Cubesat XI-IV 31 Jul 20:08:22 20:12:34 22° 270° (W) 20:16:39 437.490
Cosmos 2499 31 Jul 20:11:05 20:19:43 73° 265° (W) 20:28:33 435.465 / 435.565
COMPASS 1 31 Jul 20:12:39 20:15:29 18° 62° (ENE) 20:18:27 437.405
SEEDS 31 Jul 20:25:50 20:29:28 28° 66° (ENE) 20:33:10 437.485
VERMONT LUNAR 31 Jul 20:27:31 20:29:08 13° 168° (SSE) 20:30:47 437.305
CUTE 1.7 + AOD 2 31 Jul 20:27:31 20:31:24 35° 68° (ENE) 20:35:21 437.475
Oscar 11 31 Jul 20:31:49 20:33:48 13° 58° (ENE) 20:35:57 145.826/435.025
CUBEBUG 2 31 Jul 20:33:05 20:35:00 13° 57° (ENE) 20:37:07 437.445
PCSat 31 Jul 20:35:32 20:39:05 17° 253° (WSW) 20:42:27 145.827
CANX-2 31 Jul 20:35:35 20:39:40 46° 70° (ENE) 20:43:49 2200.000
RS-15 31 Jul 20:40:22 20:46:30 18° 98° (E) 20:53:26 29.354- 29.394
PRISM 31 Jul 20:45:26 20:49:35 70° 103° (ESE) 20:53:40 437.425
DELFI C3 31 Jul 20:46:02 20:47:19 11° 58° (ENE) 20:48:45 145.870
AAUSAT CUBESAT 2 31 Jul 20:53:21 20:57:12 36° 68° (ENE) 21:01:06 437.432
CUBESAT XI-V 31 Jul 21:03:03 21:06:50 25° 297° (WNW) 21:10:33 437.345
HO-68 31 Jul 21:12:56 21:20:06 77° 254° (WSW) 21:27:18 435.675
BRITE-PL 31 Jul 21:16:38 21:20:19 26° 266° (W) 21:23:51 437.365/2234.400
STRAND 1 31 Jul 21:19:23 21:24:24 57° 291° (WNW) 21:29:23 437.568
DOVE 4 31 Jul 21:20:07 21:24:14 59° 260° (W) 21:28:22 437.250
GOMX 1 31 Jul 21:29:49 21:33:34 30° 265° (W) 21:37:15 467.674
ZACube-1 31 Jul 21:30:17 21:33:50 27° 65° (ENE) 21:37:31 437.345
CINEMA 3 31 Jul 21:32:54 21:37:03 86° 76° (ENE) 21:41:21 145.822/145.860
COMPASS 1 31 Jul 21:46:36 21:50:46 59° 260° (W) 21:54:59 437.405
FUNcube-1 31 Jul 21:51:42 21:55:40 41° 69° (ENE) 21:59:44 145.935
UWE-3 31 Jul 21:52:24 21:56:30 54° 71° (ENE) 22:00:44 435.000/436.395/437.385
SEEDS 31 Jul 22:01:16 22:05:10 34° 264° (W) 22:09:06 437.485
ISS 31 Jul 22:01:32 22:03:46 17° 141° (SE) 22:06:03 145.825
VERMONT LUNAR 31 Jul 22:03:07 22:05:10 16° 184° (S) 22:07:12 437.305
CUTE 1.7 + AOD 2 31 Jul 22:03:40 22:07:23 28° 267° (W) 22:11:05 437.475
Oscar 11 31 Jul 22:05:01 22:09:22 89° 72° (ENE) 22:13:46 145.826/435.025
Cosmos 2499 31 Jul 22:06:02 22:11:36 18° 285° (WNW) 22:16:50 435.465 / 435.565
CUBEBUG 2 31 Jul 22:06:53 22:11:04 87° 256° (WSW) 22:15:26 437.445
UKube-1 31 Jul 22:07:32 22:10:47 22° 62° (ENE) 22:14:08 .
AISAT 31 Jul 22:09:12 22:11:52 16° 59° (ENE) 22:14:40 437.250
PHONESAT 2.4 31 Jul 22:09:55 22:11:55 15° 166° (SSE) 22:13:57 2401.200-2431.200
Cosmos 2491 31 Jul 22:12:03 22:18:09 21° 51° (NE) 22:24:31 435.465 / 435.565
AUBIESAT-1 31 Jul 22:12:10 22:14:44 15° 92° (E) 22:17:28 437.475
CANX-2 31 Jul 22:12:29 22:15:51 21° 269° (W) 22:19:08 2200.000
50 SAT 31 Jul 22:15:52 22:18:24 17° 62° (ENE) 22:21:03 437.505
DELFI C3 31 Jul 22:17:40 22:21:45 84° 76° (ENE) 22:25:52 145.870
HUMSAT D 31 Jul 22:20:31 22:24:20 36° 68° (ENE) 22:28:15 437.325/437.525
PRISM 31 Jul 22:22:04 22:24:33 15° 301° (WNW) 22:26:53 437.425
CUBEBUG 1 31 Jul 22:25:26 22:27:31 14° 58° (ENE) 22:29:46 437.445
AAUSAT CUBESAT 2 31 Jul 22:29:17 22:32:53 26° 267° (W) 22:36:27 437.432
DX 1 31 Jul 22:34:01 22:38:02 39° 68° (ENE) 22:42:07 434.975-435.025
AIST 1 31 Jul 22:34:26 22:36:41 14° 61° (ENE) 22:39:05
RS-15 31 Jul 22:46:02 22:56:46 67° 121° (ESE) 23:08:01 29.354- 29.394
VELOX 1 31 Jul 22:46:53 22:50:48 32° 66° (ENE) 22:54:45 145.980
ESTCUBE 1 31 Jul 22:56:51 23:00:46 30° 65° (ENE) 23:04:45 437.505/2401.250
STRAND 1 31 Jul 23:01:10 23:02:39 11° 310° (NW) 23:03:55 437.568
SPROUT 31 Jul 23:04:20 23:05:13 11° 56° (NE) 23:06:17 437.525
HO-68 31 Jul 23:04:40 23:09:11 17° 276° (W) 23:13:21 435.675
ZACube-1 31 Jul 23:06:10 23:10:05 36° 264° (W) 23:14:05 437.345
TIGRISAT 31 Jul 23:12:30 23:16:05 22° 91° (E) 23:19:47 435.000
CINEMA 3 31 Jul 23:13:58 23:15:03 11° 276° (W) 23:15:55 145.822/145.860
ANTELSAT 31 Jul 23:14:02 23:17:44 23° 91° (E) 23:21:34 437.575/2403.000
M-CUBED/EXP-1 PRIME 31 Jul 23:15:28 23:20:15 61° 106° (ESE) 23:24:58 437.505
QB50P1 31 Jul 23:24:21 23:25:18 11° 85° (E) 23:26:29 145.935-145.965
NANOSAT C BR1 31 Jul 23:25:38 23:26:42 11° 85° (E) 23:27:59 145.865
FUNcube-1 31 Jul 23:28:46 23:32:11 23° 269° (W) 23:35:36 145.935
BEESAT 3 31 Jul 23:29:47 23:30:23 10° 110° (ESE) 23:31:12 437.485
UWE-3 31 Jul 23:30:31 23:33:27 18° 271° (W) 23:36:20 435.000/436.395/437.385
ISS 31 Jul 23:36:33 23:39:49 74° 157° (SSE) 23:43:04 145.825
UKube-1 31 Jul 23:42:26 23:46:38 50° 260° (W) 23:50:52 .
AISAT 31 Jul 23:43:34 23:47:58 73° 257° (WSW) 23:52:23 437.250
Oscar 11 31 Jul 23:44:46 23:46:17 11° 276° (W) 23:47:36 145.826/435.025
AUBIESAT-1 31 Jul 23:45:17 23:50:05 85° 291° (WNW) 23:54:48 437.475
PHONESAT 2.4 31 Jul 23:46:38 23:49:10 19° 183° (S) 23:51:41 2401.200-2431.200
CUBEBUG 2 31 Jul 23:48:00 23:48:37 10° 277° (W) 23:48:58 437.445
50 SAT 31 Jul 23:48:47 23:52:37 54° 260° (W) 23:56:30 437.505
DELFI C3 31 Jul 23:56:18 23:57:29 11° 275° (W) 23:58:27 145.870
HUMSAT D 31 Jul 23:56:41 00:00:11 25° 267° (W) 00:03:42 437.325/437.525
CUBEBUG 1 31 Jul 23:58:56 00:03:18 88° 255° (WSW) 00:07:40 437.445
UNISAT 6 01 Aug 00:04:57 00:09:38 67° 102° (ESE) 00:14:20 437.425
POLYITAN 1 01 Aug 00:05:09 00:08:50 28° 94° (E) 00:12:34 437.675
Cosmos 2491 01 Aug 00:08:07 00:16:53 76° 77° (ENE) 00:25:36 435.465 / 435.565
AIST 1 01 Aug 00:10:40 00:14:57 72° 263° (W) 00:19:11
DX 1 01 Aug 00:10:46 00:14:26 25° 266° (W) 00:18:02 434.975-435.025
POPSAT HIP 1 01 Aug 00:22:10 00:26:11 39° 97° (E) 00:30:13 437.405
VELOX 1 01 Aug 00:23:22 00:27:21 32° 265° (W) 00:31:18 145.980
BEESAT 2 01 Aug 00:23:58 00:27:26 27° 118° (ESE) 00:30:58 435.950
ITUPSAT 1 01 Aug 00:24:37 00:25:39 11° 52° (NE) 00:26:53 437.325
BUGSAT 1 01 Aug 00:28:25 00:31:58 29° 95° (E) 00:35:34 437.445
QB50P2 01 Aug 00:29:40 00:33:49 49° 99° (E) 00:37:59 145.880/145.840
ESTCUBE 1 01 Aug 00:33:21 00:37:34 36° 264° (W) 00:41:47 437.505/2401.250
YUBILEINY 01 Aug 00:35:14 00:43:09 42° 87° (E) 00:51:15 435.215
SPROUT 01 Aug 00:36:19 00:40:35 72° 73° (ENE) 00:44:52 437.525
TIGRISAT 01 Aug 00:48:35 00:53:08 52° 289° (WNW) 00:57:42 435.000
TISAT 1 01 Aug 00:49:32 00:53:40 64° 73° (ENE) 00:57:51 437.305
ANTELSAT 01 Aug 00:50:15 00:54:47 49° 290° (WNW) 00:59:20 437.575/2403.000
M-CUBED/EXP-1 PRIME 01 Aug 00:50:48 00:54:40 24° 304° (NW) 00:58:25 437.505
DUCHIFAT 1 01 Aug 00:54:35 00:58:51 82° 102° (ESE) 01:03:06 145.980
QB50P1 01 Aug 00:57:36 01:01:53 90° 4° (N) 01:06:09 145.935-145.965
NANOSAT C BR1 01 Aug 00:58:58 01:03:14 89° 285° (WNW) 01:07:30 145.865
RS-15 01 Aug 00:59:00 01:09:47 53° 329° (NNW) 01:21:03 29.354- 29.394
BEESAT 3 01 Aug 01:03:35 01:07:40 77° 128° (SE) 01:11:47 437.485
ISS 01 Aug 01:13:07 01:16:20 57° 358° (N) 01:19:35 145.825
BEESAT 01 Aug 01:17:24 01:21:26 28° 63° (ENE) 01:25:32 436.000
AUBIESAT-1 01 Aug 01:21:09 01:24:08 16° 309° (NW) 01:26:59 437.475
O/OREOS (USA 219) 01 Aug 01:23:32 01:25:23 13° 99° (E) 01:27:26 437.305
PHONESAT 2.4 01 Aug 01:25:00 01:26:22 12° 199° (SSW) 01:27:40 2401.200-2431.200
Oscar 19 01 Aug 01:31:39 01:33:22 12° 83° (E) 01:35:23 437.125/150
SWISSCUBE 01 Aug 01:37:18 01:41:50 43° 68° (ENE) 01:46:25 437.505
CUBEBUG 1 01 Aug 01:39:11 01:40:25 11° 275° (W) 01:41:24 437.445
POLYITAN 1 01 Aug 01:40:53 01:44:47 35° 293° (WNW) 01:48:40 437.675
UNISAT 6 01 Aug 01:42:38 01:45:59 19° 299° (WNW) 01:49:15 437.425
AIST 2 01 Aug 01:54:05 01:58:12 49° 123° (ESE) 02:02:21 435.215
ITUPSAT 1 01 Aug 01:57:55 02:02:39 60° 70° (ENE) 02:07:25 437.325
POPSAT HIP 1 01 Aug 01:58:22 02:01:54 25° 296° (WNW) 02:05:22 437.405
BEESAT 2 01 Aug 02:01:21 02:05:20 45° 317° (NW) 02:09:20 435.950
BUGSAT 1 01 Aug 02:03:50 02:07:27 31° 293° (WNW) 02:11:02 437.445
Cosmos 2491 01 Aug 02:05:52 02:13:01 29° 279° (W) 02:19:56 435.465 / 435.565
QB50P2 01 Aug 02:06:10 02:09:27 21° 297° (WNW) 02:12:38 145.880/145.840
KKS-1 01 Aug 02:14:41 02:17:42 19° 60° (ENE) 02:20:52 437.445
SPROUT 01 Aug 02:14:58 02:17:14 14° 273° (W) 02:19:20 437.525
TISAT 1 01 Aug 02:27:27 02:29:55 15° 272° (W) 02:32:16 437.305
Gurwin Techsat 1B 01 Aug 02:28:18 02:30:24 13° 83° (E) 02:32:47 435.225
YUBILEINY 01 Aug 02:31:23 02:39:54 53° 289° (WNW) 02:48:26 435.215
DUCHIFAT 1 01 Aug 02:31:49 02:34:07 14° 301° (WNW) 02:36:16 145.980
QB50P1 01 Aug 02:35:08 02:37:09 13° 302° (WNW) 02:39:01 145.935-145.965
NANOSAT C BR1 01 Aug 02:36:31 02:38:28 13° 302° (WNW) 02:40:17 145.865
Cosmos 2504 01 Aug 02:40:39 02:46:42 31° 83° (E) 02:53:14 435.465 / 435.565
BEESAT 3 01 Aug 02:42:49 02:46:04 22° 328° (NNW) 02:49:18 437.485
ISS 01 Aug 02:49:39 02:52:56 89° 37° (NE) 02:56:13 145.825
ITAMSAT 1 01 Aug 02:50:58 02:54:14 17° 87° (E) 02:57:40 435.822/435.867
BEESAT 01 Aug 02:54:31 02:59:07 44° 262° (W) 03:03:43 436.000
O/OREOS (USA 219) 01 Aug 02:59:41 03:04:11 86° 300° (WNW) 03:08:44 437.305
Oscar 19 01 Aug 03:08:32 03:13:44 77° 105° (ESE) 03:18:56 437.125/150
JAS-2 01 Aug 03:14:07 03:19:33 21° 83° (E) 03:25:17 435.910
RS-15 01 Aug 03:14:56 03:25:15 38° 1° (N) 03:36:02 29.354- 29.394
SWISSCUBE 01 Aug 03:15:45 03:19:53 27° 267° (W) 03:23:57 437.505
STARS 01 Aug 03:23:20 03:27:32 48° 69° (ENE) 03:31:46 437.465
AIST 2 01 Aug 03:33:09 03:36:58 30° 323° (NW) 03:40:45 435.215
ITUPSAT 1 01 Aug 03:37:23 03:40:58 20° 270° (W) 03:44:28 437.325
BEESAT 2 01 Aug 03:42:06 03:44:23 14° 339° (NNW) 03:46:36 435.950
KKS-1 01 Aug 03:49:34 03:53:57 62° 258° (WSW) 03:58:23 437.445
Gurwin Techsat 1B 01 Aug 04:06:02 04:11:23 79° 104° (ESE) 04:16:43 435.225
CUSAT 1 01 Aug 04:20:34 04:21:05 10° 92° (E) 04:21:42 437.405
BEESAT 3 01 Aug 04:24:56 04:25:27 10° 351° (N) 04:25:57 437.485
ISS 01 Aug 04:26:24 04:29:06 23° 216° (SW) 04:31:46 145.825
ITAMSAT 1 01 Aug 04:29:13 04:34:25 77° 289° (WNW) 04:39:36 435.822/435.867
Cosmos 2504 01 Aug 04:31:16 04:38:24 62° 286° (WNW) 04:46:07 435.465 / 435.565
YUBILEINY 01 Aug 04:34:44 04:39:27 15° 317° (NW) 04:43:46 435.215
MOZHAYETS 4 01 Aug 04:38:47 04:43:20 58° 71° (ENE) 04:47:56
O/OREOS (USA 219) 01 Aug 04:41:30 04:44:23 16° 319° (NW) 04:47:09 437.305
HORYU 2 01 Aug 04:42:55 04:46:39 25° 93° (E) 04:50:27 437.375
Oscar 19 01 Aug 04:48:52 04:52:35 20° 302° (WNW) 04:56:10 437.125/150
JAS-2 01 Aug 04:57:56 05:05:46 82° 104° (ESE) 05:13:38 435.910
CUBESAT XI-V 01 Aug 04:58:43 05:00:28 12° 56° (NE) 05:02:23 437.345
STARS 01 Aug 05:00:52 05:04:16 21° 269° (W) 05:07:34 437.465
AO-7 01 Aug 05:02:19 05:10:10 43° 98° (E) 05:18:01 29.400- 29.500
AIST 2 01 Aug 05:15:04 05:16:50 12° 346° (NNW) 05:18:32 435.215
GONETS M04 01 Aug 05:19:39 05:25:11 20° 76° (ENE) 05:31:07
STRAND 1 01 Aug 05:27:13 05:27:25 10° 49° (NE) 05:27:51 437.568
RS-15 01 Aug 05:29:24 05:40:41 55° 33° (NNE) 05:52:31 29.354- 29.394
DANDE 01 Aug 05:39:36 05:42:40 84° 104° (ESE) 05:45:21 436.750
Gurwin Techsat 1B 01 Aug 05:47:01 05:50:50 20° 303° (WNW) 05:54:32 435.225
CUSAT 1 01 Aug 06:01:06 06:03:25 24° 289° (WNW) 06:05:37 437.405
BEESAT 3 01 Aug 06:03:37 06:05:09 12° 15° (NNE) 06:06:43 437.485
PRISM 01 Aug 06:06:45 06:08:36 13° 58° (ENE) 06:10:37 437.425
ITAMSAT 1 01 Aug 06:10:16 06:13:11 15° 306° (NW) 06:15:55 435.822/435.867
MOZHAYETS 4 01 Aug 06:17:32 06:20:58 20° 271° (W) 06:24:18
HORYU 2 01 Aug 06:19:11 06:23:28 42° 292° (WNW) 06:27:42 437.375
Cosmos 2504 01 Aug 06:28:24 06:32:44 15° 312° (NW) 06:36:54 435.465 / 435.565
CUBESAT XI-V 01 Aug 06:32:30 06:37:10 73° 73° (ENE) 06:41:51 437.345
Cubesat XI-IV 01 Aug 06:40:31 06:43:59 18° 87° (E) 06:47:36 437.490
JAS-2 01 Aug 06:43:40 06:50:08 30° 303° (WNW) 06:56:33 435.910
AO-7 01 Aug 06:55:09 07:03:14 55° 299° (WNW) 07:11:13 29.400- 29.500
AIST 2 01 Aug 06:55:50 06:57:11 11° 10° (N) 06:58:34 435.215
STRAND 1 01 Aug 07:00:37 07:05:35 51° 69° (ENE) 07:10:35 437.568
BEESAT 2 01 Aug 07:00:59 07:03:46 17° 26° (NNE) 07:06:36 435.950
Cosmos 2499 01 Aug 07:03:14 07:08:01 19° 76° (ENE) 07:13:20 435.465 / 435.565
GONETS M04 01 Aug 07:12:07 07:20:48 81° 98° (E) 07:29:32
CUTE-I 01 Aug 07:35:26 07:40:36 48° 99° (E) 07:45:44 437.470
PRISM 01 Aug 07:39:15 07:43:28 88° 255° (WSW) 07:47:40 437.425
BEESAT 3 01 Aug 07:40:37 07:44:18 31° 38° (NE) 07:47:57 437.485
RS-15 01 Aug 07:42:12 07:53:45 67° 239° (WSW) 08:05:41 29.354- 29.394
CUBESAT XI-V 01 Aug 08:12:19 08:15:12 16° 273° (W) 08:17:55 437.345
Cubesat XI-IV 01 Aug 08:19:25 08:24:47 77° 288° (WNW) 08:30:06 437.490
AIST 2 01 Aug 08:33:38 08:37:10 25° 33° (NNE) 08:40:42 435.215
M-CUBED/EXP-1 PRIME 01 Aug 08:33:59 08:37:13 22° 55° (NE) 08:40:43 437.505
HO-68 01 Aug 08:37:19 08:41:28 17° 84° (E) 08:45:58 435.675
BEESAT 2 01 Aug 08:38:27 08:42:33 70° 48° (NE) 08:46:36 435.950
STRAND 1 01 Aug 08:40:47 08:45:06 26° 268° (W) 08:49:19 437.568
AO-7 01 Aug 08:49:07 08:54:23 18° 322° (NW) 08:59:25 29.400- 29.500
Cosmos 2499 01 Aug 08:52:26 08:59:55 84° 98° (E) 09:08:06 435.465 / 435.565
AUBIESAT-1 01 Aug 09:02:38 09:06:24 33° 59° (ENE) 09:10:27 437.475
GONETS M04 01 Aug 09:11:29 09:18:50 28° 302° (WNW) 09:25:59
DOVE 4 01 Aug 09:14:07 09:17:56 26° 93° (E) 09:22:00 437.250
BRITE-PL 01 Aug 09:15:05 09:19:23 62° 101° (ESE) 09:23:57 437.365/2234.400
CUTE-I 01 Aug 09:15:53 09:20:30 30° 298° (WNW) 09:25:03 437.470
BEESAT 3 01 Aug 09:18:30 09:22:20 41° 238° (WSW) 09:26:07 437.485
PRISM 01 Aug 09:18:50 09:19:38 10° 275° (W) 09:20:11 437.425
CINEMA 3 01 Aug 09:23:46 09:26:40 17° 88° (E) 09:29:48 145.822/145.860
GOMX 1 01 Aug 09:25:35 09:29:55 49° 99° (E) 09:34:33 467.674
COMPASS 1 01 Aug 09:26:29 09:29:15 17° 89° (E) 09:32:08 437.405
UNISAT 6 01 Aug 09:34:00 09:36:20 15° 57° (ENE) 09:38:51 437.425
PCSat 01 Aug 09:37:12 09:41:55 32° 113° (ESE) 09:46:44 145.827
SEEDS 01 Aug 09:40:59 09:44:44 29° 94° (E) 09:48:29 437.485
SO-50 01 Aug 09:41:47 09:45:33 24° 115° (ESE) 09:49:30 436.795
CUTE 1.7 + AOD 2 01 Aug 09:43:49 09:47:50 37° 96° (E) 09:51:51 437.475
O/OREOS (USA 219) 01 Aug 09:48:27 09:50:05 12° 36° (NE) 09:51:52 437.305
Oscar 11 01 Aug 09:49:47 09:51:34 13° 85° (E) 09:53:34 145.826/435.025
CANX-2 01 Aug 09:52:06 09:56:20 50° 99° (E) 10:00:31 2200.000
CUBEBUG 2 01 Aug 09:54:16 09:57:04 16° 87° (E) 10:00:03 437.445
RS-15 01 Aug 09:56:37 10:04:15 19° 261° (W) 10:11:17 29.354- 29.394
Cubesat XI-IV 01 Aug 10:01:02 10:04:08 15° 307° (NW) 10:07:03 437.490
AAUSAT CUBESAT 2 01 Aug 10:07:05 10:11:00 36° 96° (E) 10:14:54 437.432
M-CUBED/EXP-1 PRIME 01 Aug 10:07:34 10:11:37 55° 255° (WSW) 10:16:02 437.505
AIST 2 01 Aug 10:11:54 10:16:06 64° 235° (SW) 10:20:12 435.215
TIGRISAT 01 Aug 10:15:28 10:19:18 30° 65° (ENE) 10:23:15 435.000
ANTELSAT 01 Aug 10:17:13 10:21:07 33° 66° (ENE) 10:25:10 437.575/2403.000
BEESAT 2 01 Aug 10:17:32 10:20:09 16° 247° (WSW) 10:22:38 435.950
DUCHIFAT 1 01 Aug 10:17:36 10:19:48 14° 59° (ENE) 10:22:08 145.980
QB50P1 01 Aug 10:20:38 10:23:07 16° 60° (ENE) 10:25:45 145.935-145.965
NANOSAT C BR1 01 Aug 10:21:47 10:24:17 16° 60° (ENE) 10:26:56 145.865
HO-68 01 Aug 10:23:20 10:30:33 77° 105° (ESE) 10:37:46 435.675
AUBIESAT-1 01 Aug 10:37:18 10:41:05 33° 260° (W) 10:45:07 437.475
YUBILEINY 01 Aug 10:39:13 10:46:27 28° 58° (ENE) 10:53:53 435.215
Cosmos 2499 01 Aug 10:48:05 10:54:20 25° 304° (WNW) 11:00:46 435.465 / 435.565
ZACube-1 01 Aug 10:49:51 10:53:55 32° 95° (E) 10:58:04 437.345
DOVE 4 01 Aug 10:51:35 10:55:52 42° 290° (WNW) 11:00:22 437.250
BRITE-PL 01 Aug 10:54:39 10:57:36 18° 298° (WNW) 11:00:33 437.365/2234.400
CINEMA 3 01 Aug 10:59:44 11:04:22 71° 286° (WNW) 11:09:10 145.822/145.860
COMPASS 1 01 Aug 11:01:08 11:05:18 56° 289° (WNW) 11:09:26 437.405
POLYITAN 1 01 Aug 11:02:12 11:06:03 37° 68° (ENE) 11:09:58 437.675
GOMX 1 01 Aug 11:04:22 11:07:53 23° 296° (WNW) 11:11:27 467.674
UNISAT 6 01 Aug 11:08:07 11:12:30 85° 256° (WSW) 11:17:02 437.425
FUNcube-1 01 Aug 11:11:18 11:15:43 49° 99° (E) 11:20:10 145.935
UWE-3 01 Aug 11:13:47 11:18:21 68° 102° (ESE) 11:23:00 435.000/436.395/437.385
SEEDS 01 Aug 11:16:41 11:20:33 33° 292° (WNW) 11:24:21 437.485
POPSAT HIP 1 01 Aug 11:18:56 11:23:01 52° 71° (ENE) 11:27:08 437.405
PCSat 01 Aug 11:19:52 11:25:10 52° 313° (NW) 11:30:30 145.827
CUTE 1.7 + AOD 2 01 Aug 11:19:58 11:23:38 27° 295° (WNW) 11:27:13 437.475
SO-50 01 Aug 11:20:56 11:25:45 64° 315° (NW) 11:30:40 436.795
50 SAT 01 Aug 11:21:09 11:23:03 13° 87° (E) 11:25:05 437.505
Cosmos 2491 01 Aug 11:22:18 11:27:22 18° 74° (ENE) 11:32:51 435.465 / 435.565
BUGSAT 1 01 Aug 11:22:33 11:26:15 36° 68° (ENE) 11:29:58 437.445
Oscar 11 01 Aug 11:24:02 11:28:25 82° 285° (WNW) 11:32:46 145.826/435.025
UKube-1 01 Aug 11:26:03 11:29:10 20° 91° (E) 11:32:24 .
O/OREOS (USA 219) 01 Aug 11:26:08 11:30:39 54° 59° (ENE) 11:35:10 437.305
QB50P2 01 Aug 11:26:33 11:30:43 64° 72° (ENE) 11:34:55 145.880/145.840
DELFI C3 01 Aug 11:27:16 11:31:22 79° 103° (ESE) 11:35:25 145.870
CANX-2 01 Aug 11:28:40 11:31:57 21° 297° (WNW) 11:35:10 2200.000
CUBEBUG 2 01 Aug 11:29:40 11:34:17 72° 285° (WNW) 11:38:58 437.445
AISAT 01 Aug 11:30:53 11:33:32 16° 88° (E) 11:36:20 437.250
HUMSAT D 01 Aug 11:35:20 11:39:24 38° 97° (E) 11:43:28 437.325/437.525
AAUSAT CUBESAT 2 01 Aug 11:42:54 11:46:29 27° 295° (WNW) 11:49:59 437.432
CUBEBUG 1 01 Aug 11:45:06 11:46:55 13° 86° (E) 11:48:57 437.445
DUCHIFAT 1 01 Aug 11:50:53 11:55:04 78° 256° (WSW) 11:59:18 145.980
TIGRISAT 01 Aug 11:52:00 11:56:00 34° 265° (W) 12:00:04 435.000
DX 1 01 Aug 11:53:49 11:57:54 39° 98° (E) 12:01:59 434.975-435.025
ANTELSAT 01 Aug 11:53:58 11:57:55 32° 266° (W) 12:01:56 437.575/2403.000
QB50P1 01 Aug 11:54:20 11:58:31 69° 258° (WSW) 12:02:44 145.935-145.965
NANOSAT C BR1 01 Aug 11:55:29 11:59:40 68° 258° (WSW) 12:03:52 145.865
VELOX 1 01 Aug 12:08:56 12:12:57 34° 96° (E) 12:17:00 145.980
HO-68 01 Aug 12:11:45 12:17:45 29° 306° (NW) 12:23:36 435.675
Cosmos 2504 01 Aug 12:20:18 12:25:07 17° 49° (NE) 12:30:25 435.465 / 435.565
ESTCUBE 1 01 Aug 12:21:22 12:25:27 34° 95° (E) 12:29:33 437.505/2401.250
ZACube-1 01 Aug 12:26:11 12:30:17 34° 293° (WNW) 12:34:23 437.345
YUBILEINY 01 Aug 12:35:39 12:44:31 83° 262° (W) 12:53:21 435.215
POLYITAN 1 01 Aug 12:38:31 12:42:04 25° 267° (W) 12:45:34 437.675
CINEMA 3 01 Aug 12:39:06 12:40:52 12° 304° (WNW) 12:42:27 145.822/145.860
AIST 1 01 Aug 12:44:17 12:48:30 52° 95° (E) 12:52:44
FUNcube-1 01 Aug 12:48:09 12:51:46 23° 297° (WNW) 12:55:19 145.935
UNISAT 6 01 Aug 12:49:01 12:50:09 11° 277° (W) 12:51:02 437.425
UWE-3 01 Aug 12:51:16 12:54:28 19° 299° (WNW) 12:57:34 435.000/436.395/437.385
Oscar 19 01 Aug 12:51:39 12:55:55 28° 62° (ENE) 13:00:17 437.125/150
50 SAT 01 Aug 12:54:08 12:58:07 67° 287° (WNW) 13:02:03 437.505
POPSAT HIP 1 01 Aug 12:56:15 12:59:14 18° 270° (W) 13:02:07 437.405
BUGSAT 1 01 Aug 12:58:30 13:01:50 24° 267° (W) 13:05:07 437.445
UKube-1 01 Aug 13:01:25 13:05:38 51° 290° (WNW) 13:09:49 .
Oscar 11 01 Aug 13:02:05 13:03:56 12° 303° (WNW) 13:05:38 145.826/435.025
SO-50 01 Aug 13:03:29 13:07:13 21° 337° (NNW) 13:10:57 436.795
DELFI C3 01 Aug 13:03:49 13:05:54 14° 301° (WNW) 13:07:51 145.870
QB50P2 01 Aug 13:04:34 13:07:05 15° 272° (W) 13:09:29 145.880/145.840
PCSat 01 Aug 13:06:11 13:09:52 18° 337° (NNW) 13:13:29 145.827
AISAT 01 Aug 13:06:13 13:10:37 66° 287° (WNW) 13:14:59 437.250
O/OREOS (USA 219) 01 Aug 13:06:15 13:09:46 21° 257° (WSW) 13:13:10 437.305
CUBEBUG 2 01 Aug 13:08:28 13:10:15 12° 304° (NW) 13:11:50 437.445
HUMSAT D 01 Aug 13:11:20 13:14:59 27° 295° (WNW) 13:18:36 437.325/437.525
Cosmos 2491 01 Aug 13:14:08 13:22:51 74° 96° (E) 13:31:34 435.465 / 435.565
CUBEBUG 1 01 Aug 13:19:34 13:23:55 79° 287° (WNW) 13:28:16 437.445
DX 1 01 Aug 13:30:21 13:34:01 27° 296° (WNW) 13:37:37 434.975-435.025
JAS-2 01 Aug 13:33:18 13:36:54 16° 45° (NE) 13:40:56 435.910
VELOX 1 01 Aug 13:45:34 13:49:28 30° 295° (WNW) 13:53:17 145.980
Gurwin Techsat 1B 01 Aug 13:52:38 13:57:14 32° 63° (ENE) 14:01:56 435.225
SPROUT 01 Aug 13:54:27 13:58:46 79° 103° (ESE) 14:03:05 437.525
ITUPSAT 1 01 Aug 13:56:39 13:57:47 11° 83° (E) 13:59:12 437.325
ESTCUBE 1 01 Aug 13:58:17 14:02:19 32° 294° (WNW) 14:06:15 437.505/2401.250
TISAT 1 01 Aug 14:05:07 14:09:19 64° 102° (ESE) 14:13:31 437.305
Cosmos 2504 01 Aug 14:11:11 14:19:25 61° 74° (ENE) 14:27:57 435.465 / 435.565
ITAMSAT 1 01 Aug 14:12:39 14:17:29 40° 66° (ENE) 14:22:22 435.822/435.867
AO-7 01 Aug 14:15:55 14:22:18 26° 46° (NE) 14:28:52 29.400- 29.500
AIST 1 01 Aug 14:23:20 14:26:31 19° 295° (WNW) 14:29:36
Oscar 19 01 Aug 14:30:06 14:35:04 49° 261° (W) 14:40:04 437.125/150
YUBILEINY 01 Aug 14:33:58 14:40:09 21° 284° (WNW) 14:45:59 435.215
AISAT 01 Aug 14:45:35 14:46:24 10° 306° (NW) 14:47:01 437.250
SO-50 01 Aug 14:46:51 14:49:32 14° 1° (N) 14:52:13 436.795
CUSAT 1 01 Aug 14:47:02 14:50:06 22° 70° (ENE) 14:53:54 437.405
BEESAT 01 Aug 14:50:13 14:54:35 34° 96° (E) 14:58:56 436.000
PCSat 01 Aug 14:53:20 14:55:32 12° 3° (N) 14:57:45 145.827
CUBEBUG 1 01 Aug 14:57:57 14:59:37 12° 304° (WNW) 15:01:06 437.445
SWISSCUBE 01 Aug 15:10:39 15:15:22 56° 101° (E) 15:20:04 437.505
Cosmos 2491 01 Aug 15:13:02 15:20:41 31° 300° (WNW) 15:28:10 435.465 / 435.565
JAS-2 01 Aug 15:14:20 15:20:29 58° 67° (ENE) 15:27:30 435.910
GONETS M04 01 Aug 15:21:41 15:25:46 14° 43° (NE) 15:30:16
ITUPSAT 1 01 Aug 15:31:47 15:36:36 79° 103° (ESE) 15:41:24 437.325
SPROUT 01 Aug 15:31:52 15:34:20 15° 301° (WNW) 15:36:39 437.525
Gurwin Techsat 1B 01 Aug 15:31:59 15:37:05 45° 262° (W) 15:42:13 435.225
KKS-1 01 Aug 15:36:58 15:40:06 19° 90° (E) 15:43:20 437.445
TISAT 1 01 Aug 15:41:53 15:44:40 17° 300° (WNW) 15:47:21 437.305
